Flag for Cocos Islands Weather past 2 weeks in Bantam, Cocos Islands

Now
79 °F

Warm.


Feels Like: 82 °F
Forecast: 79 / 83 °F
Wind: 14 mph from East

Location: Cocos Island Airport

Current Time: Sep 4, 2015 at 8:26:05 AM

Latest Report: Sep 4, 2015 at 7:30 AM


Visibility: N/A

Pressure: 29.98 "Hg

Humidity: 79%

Dew point: 72 °F

Location of BantamLocation

Historic Weather in Bantam — Graph

°F

Bantam temperature yesterday

Maximum temperature yesterday: 82 °F (at 12:30 PM)
Minimum temperature yesterday: 77 °F (at 2:00 AM)
Average temperature yesterday: 79 °F

Past Weeks' High & Low Weather Summary

 TemperatureHumidityPressure
High82 °F (Aug 20, 10:30 AM)94% (Aug 21, 11:00 PM)30.07 "Hg (Aug 21, 11:00 PM)
Low73 °F (Sep 1, 8:00 AM)55% (Aug 30, 2:00 PM)29.89 "Hg (Aug 22, 3:30 PM)
Average79 °F74%29.96 "Hg
* Reported Aug 20 6:30 AM — Sep 4 7:00 AM, Bantam, Weather by CustomWeather, © 2015

Note: Actual official high and low records may vary slightly from our data, if they occured in-between our weather recording intervals... More about our weather records

Advertising

Bantam weather history for previous 24 hours

 ConditionsComfort  
Time TempWeatherWind HumidityBarometerVisibility
7:00 AM
Fri, Sep 4
77 °FPartly cloudy.10 mph83%29.98 "HgN/A
6:30 AM77 °FPassing clouds.13 mph83%29.95 "HgN/A
6:00 AM77 °FPartly cloudy.13 mph83%29.95 "HgN/A
5:30 AM77 °FClear.14 mph83%29.95 "HgN/A
5:00 AM77 °FPassing clouds.14 mph83%29.95 "HgN/A
4:30 AM77 °FPassing clouds.13 mph83%29.95 "HgN/A
3:30 AM77 °FPassing clouds.10 mph83%29.95 "HgN/A
3:00 AM77 °FWarm.12 mph83%29.95 "HgN/A
2:30 AM79 °FPassing clouds.12 mph79%29.95 "HgN/A
2:00 AM77 °FSprinkles. Mostly cloudy.13 mph89%29.95 "HgN/A
1:30 AM77 °FOvercast.3 mph83%29.98 "HgN/A
1:00 AM77 °FOvercast.12 mph83%29.98 "HgN/A
12:30 AM79 °FPassing clouds.14 mph79%29.98 "HgN/A
12:00 AM79 °FClear.14 mph79%29.98 "HgN/A
11:30 PM
Thu, Sep 3
79 °FPassing clouds.14 mph74%30.01 "HgN/A
11:00 PM79 °FPassing clouds.14 mph79%30.01 "HgN/A
10:30 PM79 °FPassing clouds.10 mph79%30.01 "HgN/A
9:30 PM79 °FClear.10 mph79%30.01 "HgN/A
9:00 PM79 °FPassing clouds.12 mph79%30.01 "HgN/A
8:30 PM79 °FPassing clouds.13 mph79%30.01 "HgN/A
8:00 PM79 °FPassing clouds.14 mph79%29.98 "HgN/A
7:30 PM79 °FPassing clouds.15 mph79%29.98 "HgN/A
7:00 PM79 °FPassing clouds.13 mph79%29.98 "HgN/A
6:30 PM79 °FScattered clouds.14 mph79%29.95 "HgN/A
6:00 PM81 °FScattered clouds.14 mph74%29.95 "HgN/A
5:30 PM81 °FWarm.15 mph74%29.95 "HgN/A
5:00 PM81 °FScattered clouds.15 mph70%29.92 "HgN/A
4:30 PM81 °FSunny.14 mph74%29.92 "HgN/A
3:30 PM82 °FScattered clouds.15 mph70%29.92 "HgN/A
3:00 PM82 °FScattered clouds.16 mph70%29.92 "HgN/A
2:30 PM82 °FScattered clouds.17 mph70%29.92 "HgN/A
1:30 PM82 °FScattered clouds.17 mph70%29.92 "HgN/A
1:00 PM82 °FScattered clouds.17 mph70%29.95 "HgN/A
12:30 PM82 °FWarm.17 mph66%29.95 "HgN/A
12:00 PM81 °FSunny.18 mph70%29.95 "HgN/A
11:30 AM81 °FSunny.18 mph66%29.95 "HgN/A
11:00 AM81 °FPartly sunny.18 mph70%29.98 "HgN/A
10:30 AM81 °FScattered clouds.18 mph66%29.98 "HgN/A
10:00 AM81 °FScattered clouds.17 mph70%29.98 "HgN/A
9:30 AM81 °FScattered clouds.17 mph70%29.98 "HgN/A
8:30 AM79 °FScattered clouds.17 mph74%29.98 "HgN/A
8:00 AM79 °FWarm.17 mph70%29.98 "HgN/A
Weather by CustomWeather, © 2015

See weather overviewHow to use our weather pages